Weather History for EIDW - November, 2013

Change the Weather History Date:

Thursday, November 7, 2013

  Actual Average Record
Temperature  
Mean Temperature 44 °F -  
Max Temperature 50 °F 49 °F 57 °F (2003)
Min Temperature 38 °F 40 °F 28 °F (2011)
Degree Days  
Heating Degree Days 21    
Moisture  
Dew Point 39 °F    
Average Humidity 80    
Maximum Humidity 93    
Minimum Humidity 57    
Precipitation  
Precipitation 0.04 in 0.09 in - ()
Sea Level Pressure  
Sea Level Pressure 29.57 in    
Wind  
Wind Speed 13 mph ()    
Max Wind Speed 26 mph    
Max Gust Speed 38 mph    
Visibility 6.9 miles    
Events Rain    
Averages and records for this station are not official NWS values.
T = Trace of Precipitation, MM = Missing Value Source: Averaged Metar Reports

Daily Weather History Graph

Daily Weather History Graph

Search for Another Location

Airport or City:

Trip Planner

Search our weather history database for the weather conditions in past years. The results will help you decide how hot, cold, wet, or windy it might be!

Date:

Astronomy

Nov. 07, 2013 Rise Set
Actual Time 7:35 AM GMT 4:41 PM GMT
Civil Twilight 6:57 AM GMT 5:19 PM GMT
Nautical Twilight 6:16 AM GMT 6:00 PM GMT
Astronomical Twilight 5:35 AM GMT 6:41 PM GMT
Moon 11:42 AM GMT (11/7) 8:29 PM GMT (11/7)
Length of Visible Light 10h 21m
Length of Day
9h 05m
Waxing Crescent, 20% of the Moon is Illuminated
Nov 7
Waxing Crescent
Nov 10
First Quarter
Nov 17
Full
Nov 25
Last Quarter
Dec 3
New

Hourly Weather History & Observations

Time (GMT) Temp. Windchill Dew Point Humidity Pressure Visibility Wind Dir Wind Speed Gust Speed Precip Events Conditions
12:00 AM 41.0 °F 33.9 °F 39.2 °F 93% 29.53 in - WSW 12.7 mph - N/A   Clear
12:30 AM 41.0 °F 34.3 °F 39.2 °F 93% 29.53 in - WSW 11.5 mph - N/A   Clear
1:00 AM 41.0 °F 35.2 °F 39.2 °F 93% 29.56 in - SW 9.2 mph - N/A   Clear
1:30 AM 41.0 °F 34.7 °F 39.2 °F 93% 29.56 in - WSW 10.4 mph - N/A   Clear
2:00 AM 39.2 °F 32.5 °F 37.4 °F 93% 29.56 in - SW 10.4 mph - N/A   Clear
2:30 AM 41.0 °F 34.3 °F 37.4 °F 87% 29.56 in - SW 11.5 mph - N/A   Clear
3:00 AM 39.2 °F 32.5 °F 37.4 °F 93% 29.59 in - SW 10.4 mph - N/A   Clear
3:30 AM 39.2 °F 32.0 °F 37.4 °F 93% 29.59 in - SW 11.5 mph - N/A   Clear
4:00 AM 39.2 °F 31.6 °F 37.4 °F 93% 29.59 in - SW 12.7 mph - N/A   Clear
4:30 AM 39.2 °F 32.5 °F 37.4 °F 93% 29.56 in - SW 10.4 mph - N/A   Clear
5:00 AM 39.2 °F 32.0 °F 37.4 °F 93% 29.56 in - SW 11.5 mph - N/A   Clear
5:30 AM 39.2 °F 33.0 °F 35.6 °F 87% 29.56 in - SSW 9.2 mph - N/A   Clear
6:00 AM 39 °F - 36 °F 83% 29.60 in 19 mi SSW 11.2 mph - -   Clear
6:00 AM 39.2 °F 32.5 °F 35.6 °F 87% 29.56 in - SSW 10.4 mph - N/A   Clear
6:30 AM 39.2 °F 33.0 °F 35.6 °F 87% 29.56 in - SSW 9.2 mph - N/A   Clear
7:00 AM 41.0 °F 35.2 °F 35.6 °F 81% 29.56 in - SSW 9.2 mph - N/A   Clear
7:30 AM 42.8 °F 35.8 °F 37.4 °F 81% 29.59 in 6.2 mi WSW 13.8 mph - N/A Rain Light Rain Showers
8:00 AM 41.0 °F 33.1 °F 35.6 °F 81% 29.56 in 6.2 mi WSW 15.0 mph - N/A   Partly Cloudy
8:30 AM 41.0 °F 34.3 °F 37.4 °F 87% 29.56 in 6.2 mi SW 11.5 mph - N/A   Scattered Clouds
9:00 AM 42.8 °F 35.1 °F 37.4 °F 81% 29.56 in 6.2 mi SW 16.1 mph - N/A   Scattered Clouds
9:30 AM 44.6 °F 36.6 °F 37.4 °F 76% 29.56 in 6.2 mi SW 19.6 mph - N/A   Scattered Clouds
10:00 AM 46.4 °F 39.2 °F 37.4 °F 71% 29.56 in 6.2 mi SW 18.4 mph - N/A   Partly Cloudy
10:30 AM 46.4 °F 38.1 °F 37.4 °F 71% 29.56 in 6.2 mi SW 24.2 mph - N/A   Partly Cloudy
11:00 AM 48.2 °F - 39.2 °F 71% 29.56 in 6.2 mi SW 23.0 mph - N/A   Partly Cloudy
11:30 AM 48.2 °F - 39.2 °F 71% 29.56 in 6.2 mi SW 23.0 mph 34.5 mph N/A   Partly Cloudy
12:00 PM 49 °F - 38 °F 57% 29.56 in 25 mi SW 24.6 mph - -   Partly Cloudy
12:00 PM 50.0 °F - 39.2 °F 66% 29.56 in 6.2 mi SW 23.0 mph - N/A   Partly Cloudy
12:30 PM 50.0 °F - 39.2 °F 66% 29.53 in 6.2 mi WSW 26.5 mph 38.0 mph N/A   Partly Cloudy
1:00 PM 50.0 °F - 39.2 °F 66% 29.53 in 6.2 mi SW 24.2 mph - N/A   Scattered Clouds
1:30 PM 50.0 °F - 39.2 °F 66% 29.53 in 6.2 mi WSW 24.2 mph 35.7 mph N/A   Mostly Cloudy
2:00 PM 50.0 °F - 39.2 °F 66% 29.53 in 6.2 mi SW 25.3 mph - N/A   Mostly Cloudy
2:30 PM 50.0 °F - 39.2 °F 66% 29.53 in 6.2 mi WSW 23.0 mph 34.5 mph N/A   Mostly Cloudy
3:00 PM 50.0 °F - 39.2 °F 66% 29.53 in 6.2 mi WSW 21.9 mph - N/A   Mostly Cloudy
3:30 PM 50.0 °F - 39.2 °F 66% 29.56 in 6.2 mi WSW 23.0 mph - N/A Rain Light Rain Showers
4:00 PM 44.6 °F 38.1 °F 41.0 °F 87% 29.56 in 6.2 mi West 13.8 mph - N/A Rain Light Rain Showers
4:30 PM 46.4 °F 40.7 °F 41.0 °F 81% 29.56 in 6.2 mi WSW 12.7 mph - N/A   Scattered Clouds
5:00 PM 48.2 °F - 41.0 °F 76% 29.56 in 6.2 mi WSW 19.6 mph - N/A   Scattered Clouds
5:30 PM 46.4 °F 40.1 °F 41.0 °F 81% 29.56 in 6.2 mi WSW 15.0 mph - N/A   Scattered Clouds
6:00 PM 47 °F - 40 °F 71% 29.59 in 19 mi SW 15.7 mph - -   Partly Cloudy
6:00 PM 46.4 °F 39.8 °F 41.0 °F 81% 29.56 in 6.2 mi SW 16.1 mph - N/A   Scattered Clouds
6:30 PM 46.4 °F 39.8 °F 41.0 °F 81% 29.56 in 6.2 mi SW 16.1 mph - N/A   Scattered Clouds
7:00 PM 46.4 °F 39.8 °F 39.2 °F 76% 29.59 in 6.2 mi SW 16.1 mph - N/A   Scattered Clouds
7:30 PM 46.4 °F 39.5 °F 39.2 °F 76% 29.59 in 6.2 mi SW 17.3 mph - N/A   Scattered Clouds
8:00 PM 46.4 °F 40.1 °F 41.0 °F 81% 29.59 in 6.2 mi WSW 15.0 mph - N/A   Partly Cloudy
8:30 PM 46.4 °F 40.1 °F 41.0 °F 81% 29.59 in 6.2 mi SW 15.0 mph - N/A   Partly Cloudy
9:00 PM 44.6 °F 38.8 °F 41.0 °F 87% 29.59 in 6.2 mi SW 11.5 mph - N/A   Partly Cloudy
9:30 PM 44.6 °F 38.1 °F 39.2 °F 81% 29.59 in 6.2 mi SW 13.8 mph - N/A   Partly Cloudy
10:00 PM 44.6 °F 38.8 °F 39.2 °F 81% 29.59 in 6.2 mi SSW 11.5 mph - N/A   Partly Cloudy
10:30 PM 44.6 °F 38.1 °F 39.2 °F 81% 29.59 in 6.2 mi SW 13.8 mph - N/A   Partly Cloudy
11:00 PM 44.6 °F 38.1 °F 39.2 °F 81% 29.59 in 6.2 mi SW 13.8 mph - N/A   Partly Cloudy
11:30 PM 44.6 °F 38.1 °F 39.2 °F 81% 29.62 in 6.2 mi SW 13.8 mph - N/A   Partly Cloudy